{"data":{"norad_id":64139,"intl_designator":"2025-111S","name":"STARLINK-34212","alt_names":[],"object_type":"PAYLOAD","status":"ACTIVE","operator":null,"country":"US","launch_date":"2025-05-24","launch_site_code":"AFETR","launch_vehicle":null,"mission":null,"orbit_class":"UNKNOWN","rcs_meters":null,"size_class":null,"mass_kg":null,"dimensions":null,"purposes":["comms"],"wikipedia_slug":null,"has_3d_model":false,"image_url":null,"decayed_at":null,"tle_current":{"epoch":"2026-09-20T17:25:07.447296Z","epoch_age_seconds":121000,"freshness":"FRESH","line1":"1 64139U 25111S   26263.72578064  .00015916  00000+0  58579-3 0  9999","line2":"2 64139  42.9970  56.2325 0002685 275.3991  84.6554 15.27625553 75292","mean_motion":15.27625553,"eccentricity":0.0002685,"inclination_deg":42.997,"raan_deg":56.2325,"arg_perigee_deg":275.3991,"mean_anomaly_deg":84.6554,"bstar":0.00058579,"rev_number":7529,"period_min":94.263937728201,"perigee_km":481.07050551585,"apogee_km":484.75488920333,"semimajor_km":6861.0496973596,"source":"CELESTRAK","updated_at":"2026-09-21T09:00:35.235710Z"}}}